Weather History for KLCH - January, 2013

Change the Weather History Date:

Monday, January 28, 2013

  Actual Average Record
Temperature  
Mean Temperature 70 °F 52 °F  
Max Temperature 76 °F 62 °F 81 °F (1912)
Min Temperature 64 °F 43 °F 21 °F (1897)
Degree Days  
Heating Degree Days 0 13  
Month to date heating degree days 301 384  
Since 1 July heating degree days 756 958  
Cooling Degree Days 5 0  
Month to date cooling degree days 15 0  
Year to date cooling degree days 15 0  
Growing Degree Days 20 (Base 50)    
Moisture  
Dew Point 65 °F    
Average Humidity 83    
Maximum Humidity 93    
Minimum Humidity 73    
Precipitation  
Precipitation 0.00 in 0.16 in 2.13 in (1990)
Month to date precipitation 11.32 4.76  
Year to date precipitation 11.32 4.76  
Snow  
Snow 0.00 in 0.00 in 0.10 in (2014)
Month to date snowfall 0.0 0.0  
Since 1 July snowfall 0.0 T  
Snow Depth 0.00 in    
Sea Level Pressure  
Sea Level Pressure 30.13 in    
Wind  
Wind Speed 10 mph (SSE)    
Max Wind Speed 20 mph    
Max Gust Speed 23 mph    
Visibility 9 miles    
Events      
T = Trace of Precipitation, MM = Missing Value Source: NWS Daily Summary

Daily Weather History Graph

Daily Weather History Graph

Search for Another Location

Airport or City:

Trip Planner

Search our weather history database for the weather conditions in past years. The results will help you decide how hot, cold, wet, or windy it might be!

Date:

Astronomy

Jan. 28, 2013 Rise Set
Actual Time 7:05 AM CST 5:46 PM CST
Civil Twilight 6:40 AM CST 6:12 PM CST
Nautical Twilight 6:11 AM CST 6:40 PM CST
Astronomical Twilight 5:42 AM CST 7:09 PM CST
Moon 7:29 PM CST (1/28) 7:41 AM CST (1/28)
Length of Visible Light 11h 31m
Length of Day
10h 41m
Full, 98% of the Moon is Illuminated
Jan 28
Full
Feb 3
Last Quarter
Feb 10
New
Feb 17
First Quarter
Feb 25
Full

Hourly Weather History & Observations

Time (CST) Temp. Dew Point Humidity Pressure Visibility Wind Dir Wind Speed Gust Speed Precip Events Conditions
12:53 AM 69.1 °F 63.0 °F 81% 30.16 in 10.0 mi SSE 12.7 mph - N/A   Overcast
1:07 AM 69.8 °F 62.6 °F 78% 30.14 in 10.0 mi SSE 9.2 mph - N/A   Overcast
1:38 AM 69.8 °F 62.6 °F 78% 30.15 in 10.0 mi SSE 11.5 mph - N/A   Overcast
1:45 AM 69.8 °F 62.6 °F 78% 30.14 in 10.0 mi SSE 12.7 mph - N/A   Overcast
1:53 AM 68.0 °F 63.0 °F 84% 30.16 in 10.0 mi SSE 11.5 mph - N/A   Overcast
2:02 AM 68.0 °F 62.6 °F 83% 30.14 in 10.0 mi SSE 10.4 mph - N/A   Overcast
2:53 AM 68.0 °F 63.0 °F 84% 30.16 in 10.0 mi SSE 8.1 mph - N/A   Overcast
3:53 AM 66.9 °F 63.0 °F 87% 30.15 in 10.0 mi SSE 5.8 mph - N/A   Overcast
4:53 AM 64.9 °F 62.1 °F 90% 30.15 in 9.0 mi SE 4.6 mph - N/A   Overcast
5:53 AM 64.9 °F 62.1 °F 90% 30.16 in 10.0 mi ESE 5.8 mph - N/A   Overcast
6:53 AM 64.9 °F 62.1 °F 90% 30.18 in 9.0 mi ESE 4.6 mph - N/A   Overcast
7:53 AM 64.9 °F 63.0 °F 93% 30.19 in 8.0 mi ESE 5.8 mph - N/A   Overcast
8:00 AM 66.2 °F 62.6 °F 88% 30.17 in 8.0 mi ESE 5.8 mph - N/A   Overcast
8:53 AM 66.9 °F 64.0 °F 90% 30.20 in 10.0 mi ESE 5.8 mph - N/A   Overcast
9:53 AM 69.1 °F 64.0 °F 84% 30.21 in 10.0 mi ESE 10.4 mph - N/A   Overcast
10:53 AM 71.1 °F 64.0 °F 78% 30.20 in 10.0 mi SE 9.2 mph - N/A   Overcast
11:33 AM 73.4 °F 64.4 °F 73% 30.17 in 10.0 mi SE 11.5 mph - N/A   Overcast
11:53 AM 73.0 °F 64.9 °F 76% 30.18 in 10.0 mi SSE 10.4 mph - N/A   Overcast
12:06 PM 73.4 °F 64.4 °F 73% 30.15 in 10.0 mi SSE 12.7 mph - N/A   Overcast
12:53 PM 75.0 °F 66.0 °F 73% 30.14 in 10.0 mi SSE 11.5 mph - N/A   Overcast
1:53 PM 75.0 °F 66.0 °F 73% 30.13 in 10.0 mi South 9.2 mph 17.3 mph N/A   Overcast
2:45 PM 73.4 °F 66.2 °F 78% 30.09 in 10.0 mi SSE 11.5 mph - N/A   Overcast
2:53 PM 73.9 °F 66.0 °F 76% 30.12 in 10.0 mi SSE 15.0 mph 21.9 mph N/A   Overcast
3:53 PM 73.9 °F 66.0 °F 76% 30.11 in 10.0 mi SSE 13.8 mph 20.7 mph N/A   Overcast
4:04 PM 73.4 °F 66.2 °F 78% 30.09 in 10.0 mi SSE 18.4 mph 23.0 mph N/A   Mostly Cloudy
4:32 PM 73.4 °F 66.2 °F 78% 30.09 in 10.0 mi SSE 12.7 mph - N/A   Overcast
4:53 PM 73.0 °F 64.9 °F 76% 30.11 in 10.0 mi SSE 16.1 mph - N/A   Overcast
5:15 PM 71.6 °F 64.4 °F 78% 30.08 in 10.0 mi SSE 12.7 mph - N/A   Mostly Cloudy
5:37 PM 71.6 °F 66.2 °F 83% 30.08 in 10.0 mi SSE 9.2 mph - N/A   Mostly Cloudy
5:53 PM 71.1 °F 64.9 °F 81% 30.10 in 10.0 mi SSE 11.5 mph 18.4 mph N/A   Overcast
6:35 PM 69.8 °F 64.4 °F 83% 30.07 in 10.0 mi SSE 6.9 mph - N/A   Scattered Clouds
6:53 PM 68.0 °F 64.9 °F 90% 30.09 in 9.0 mi SSE 8.1 mph - N/A   Clear
7:17 PM 68.0 °F 64.4 °F 88% 30.07 in 8.0 mi SSE 8.1 mph - N/A   Partly Cloudy
7:37 PM 69.8 °F 66.2 °F 88% 30.07 in 8.0 mi SSE 10.4 mph - N/A   Mostly Cloudy
7:53 PM 69.1 °F 66.0 °F 90% 30.10 in 8.0 mi SSE 15.0 mph 19.6 mph N/A   Overcast
8:53 PM 69.1 °F 66.9 °F 93% 30.09 in 8.0 mi SSE 13.8 mph 23.0 mph N/A   Overcast
9:53 PM 70.0 °F 66.9 °F 90% 30.08 in 8.0 mi SSE 10.4 mph 20.7 mph N/A   Overcast
10:53 PM 69.1 °F 66.0 °F 90% 30.08 in 9.0 mi SSE 13.8 mph - N/A   Overcast
11:53 PM 69.1 °F 66.0 °F 90% 30.08 in 8.0 mi SSE 11.5 mph 18.4 mph N/A   Overcast